| time (UTC) | temp C | wind direction | speed KPH | gust KPH | rain 1hr cm | rain 24hr cm | rain mn cm | humidity % | barometer mb |
| 20260903224558 | 33 | 291 | 4.8 | 11.3 | 0.00 | 0.00 | 0.00 | 39 | 1003.4 |
| 20260903223056 | 33 | 276 | 1.6 | 9.7 | 0.00 | 0.00 | 0.00 | 40 | 1003.4 |
| 20260903221554 | 34 | 325 | 1.6 | 6.4 | 0.00 | 0.00 | 0.00 | 36 | 1003.5 |
| 20260903220106 | 35 | 210 | 1.6 | 9.7 | 0.00 | 0.00 | 0.00 | 37 | 1003.8 |
| 20260903214552 | 33 | 322 | 0.0 | 8.0 | 0.00 | 0.00 | 0.00 | 39 | 1003.8 |
| 20260903213049 | 33 | 285 | 0.0 | 9.7 | 0.00 | 0.00 | 0.00 | 39 | 1004.1 |
| 20260903211544 | 32 | 238 | 3.2 | 12.9 | 0.00 | 0.00 | 0.00 | 41 | 1004.3 |
| 20260903210048 | 33 | 328 | 1.6 | 8.0 | 0.00 | 0.00 | 0.00 | 42 | 1004.4 |
| 20260903204539 | 32 | 132 | 0.0 | 6.4 | 0.00 | 0.00 | 0.00 | 42 | 1004.6 |
| 20260903203042 | 32 | 314 | 1.6 | 6.4 | 0.00 | 0.00 | 0.00 | 43 | 1004.9 |
| 20260903201533 | 32 | 266 | 3.2 | 8.0 | 0.00 | 0.00 | 0.00 | 43 | 1005.1 |
| 20260903200031 | 32 | 323 | 1.6 | 6.4 | 0.00 | 0.00 | 0.00 | 46 | 1005.5 |
| 20260903194541 | 31 | 326 | 1.6 | 11.3 | 0.00 | 0.00 | 0.00 | 47 | 1005.7 |
| 20260903193023 | 31 | 310 | 0.0 | 9.7 | 0.00 | 0.00 | 0.00 | 48 | 1005.9 |
| 20260903191536 | 30 | 288 | 3.2 | 11.3 | 0.00 | 0.00 | 0.00 | 49 | 1006.1 |
| 20260903190018 | 30 | 283 | 0.0 | 4.8 | 0.00 | 0.00 | 0.00 | 49 | 1006.5 |
| 20260903184521 | 30 | 326 | 1.6 | 8.0 | 0.00 | 0.00 | 0.00 | 51 | 1006.7 |
| 20260903183016 | 29 | 277 | 3.2 | 8.0 | 0.00 | 0.00 | 0.00 | 53 | 1006.9 |
| 20260903181531 | 30 | 268 | 1.6 | 6.4 | 0.00 | 0.00 | 0.00 | 52 | 1007.1 |
| 20260903180012 | 29 | 264 | 1.6 | 6.4 | 0.00 | 0.00 | 0.00 | 53 | 1007.2 |
| 20260903174511 | 29 | 309 | 0.0 | 6.4 | 0.00 | 0.00 | 0.00 | 52 | 1007.5 |
| 20260903173010 | 29 | 261 | 0.0 | 6.4 | 0.00 | 0.00 | 0.00 | 52 | 1007.6 |
| 20260903171519 | 29 | 242 | 1.6 | 4.8 | 0.00 | 0.00 | 0.00 | 54 | 1007.6 |
| 20260903170005 | 28 | 108 | 3.2 | 6.4 | 0.00 | 0.00 | 0.00 | 55 | 1007.5 |
| 20260903164503 | 28 | 262 | 1.6 | 6.4 | 0.00 | 0.00 | 0.00 | 59 | 1007.6 |
| 20260903163005 | 27 | 133 | 1.6 | 8.0 | 0.00 | 0.00 | 0.00 | 59 | 1007.7 |
| 20260903161604 | 27 | 116 | 0.0 | 3.2 | 0.00 | 0.00 | 0.00 | 61 | 1007.6 |
| 20260903160105 | 27 | 103 | 1.6 | 4.8 | 0.00 | 0.00 | 0.00 | 62 | 1007.8 |
| 20260903154558 | 26 | 96 | 0.0 | 3.2 | 0.00 | 0.00 | 0.00 | 64 | 1007.8 |
| 20260903153057 | 26 | 107 | 0.0 | 3.2 | 0.00 | 0.00 | 0.00 | 65 | 1007.8 |
| 20260903151559 | 26 | 99 | 1.6 | 4.8 | 0.00 | 0.00 | 0.00 | 66 | 1007.7 |
| 20260903150114 | 26 | 98 | 0.0 | 6.4 | 0.00 | 0.00 | 0.00 | 66 | 1007.7 |
| 20260903144555 | 26 | 108 | 0.0 | 1.6 | 0.00 | 0.00 | 0.00 | 67 | 1007.7 |
| 20260903143059 | 25 | 113 | 0.0 | 4.8 | 0.00 | 0.00 | 0.00 | 67 | 1007.7 |
| 20260903141557 | 25 | 122 | 0.0 | 3.2 | 0.00 | 0.00 | 0.00 | 68 | 1007.6 |
| 20260903140052 | 25 | 309 | 0.0 | 0.0 | 0.00 | 0.00 | 0.00 | 72 | 1007.5 |
| 20260903134550 | 25 | 309 | 0.0 | 0.0 | 0.00 | 0.00 | 0.00 | 71 | 1007.4 |
| 20260903133049 | 25 | 309 | 0.0 | 0.0 | 0.00 | 0.00 | 0.00 | 68 | 1007.2 |
| 20260903131548 | 25 | 309 | 0.0 | 0.0 | 0.00 | 0.00 | 0.00 | 64 | 1007.2 |
| 20260903130047 | 25 | 309 | 0.0 | 0.0 | 0.00 | 0.00 | 0.00 | 66 | 1007.0 |
| 20260903124558 | 25 | 309 | 0.0 | 0.0 | 0.00 | 0.00 | 0.00 | 66 | 1006.9 |
| 20260903123046 | 25 | 309 | 1.6 | 4.8 | 0.00 | 0.00 | 0.00 | 67 | 1006.7 |
| 20260903121548 | 25 | 351 | 0.0 | 1.6 | 0.00 | 0.00 | 0.00 | 69 | 1006.6 |
| 20260903120045 | 24 | 99 | 0.0 | 0.0 | 0.00 | 0.00 | 0.00 | 71 | 1006.5 |
| 20260903114604 | 25 | 102 | 0.0 | 0.0 | 0.00 | 0.00 | 0.00 | 71 | 1006.4 |
| 20260903113042 | 25 | 102 | 0.0 | 0.0 | 0.00 | 0.00 | 0.00 | 71 | 1006.4 |
| 20260903111548 | 25 | 102 | 0.0 | 0.0 | 0.00 | 0.00 | 0.00 | 71 | 1006.4 |
| 20260903110043 | 25 | 103 | 0.0 | 1.6 | 0.00 | 0.00 | 0.00 | 65 | 1006.5 |
| 20260903104538 | 25 | 274 | 0.0 | 0.0 | 0.00 | 0.00 | 0.00 | 68 | 1006.6 |
| 20260903103046 | 25 | 274 | 0.0 | 0.0 | 0.00 | 0.00 | 0.00 | 69 | 1006.7 |
| 20260903101543 | 25 | 272 | 0.0 | 0.0 | 0.00 | 0.00 | 0.00 | 68 | 1006.8 |
| 20260903100041 | 25 | 272 | 0.0 | 0.0 | 0.00 | 0.00 | 0.00 | 68 | 1006.8 |
| 20260903094536 | 25 | 272 | 0.0 | 1.6 | 0.00 | 0.00 | 0.00 | 71 | 1006.8 |
| 20260903093100 | 25 | 272 | 0.0 | 0.0 | 0.00 | 0.00 | 0.00 | 73 | 1006.8 |
| 20260903091534 | 25 | 272 | 0.0 | 0.0 | 0.00 | 0.00 | 0.00 | 72 | 1006.8 |
| 20260903090037 | 25 | 272 | 0.0 | 0.0 | 0.00 | 0.00 | 0.00 | 71 | 1006.7 |
| 20260903084530 | 25 | 272 | 0.0 | 0.0 | 0.00 | 0.00 | 0.00 | 71 | 1006.8 |
| 20260903083030 | 25 | 124 | 0.0 | 0.0 | 0.00 | 0.00 | 0.00 | 71 | 1006.8 |
| 20260903081534 | 25 | 124 | 0.0 | 0.0 | 0.00 | 0.00 | 0.00 | 69 | 1006.9 |
| 20260903080023 | 26 | 124 | 0.0 | 0.0 | 0.00 | 0.00 | 0.00 | 62 | 1006.9 |
| 20260903074526 | 26 | 116 | 0.0 | 3.2 | 0.00 | 0.00 | 0.00 | 61 | 1007.0 |
| 20260903073023 | 26 | 97 | 0.0 | 1.6 | 0.00 | 0.00 | 0.00 | 61 | 1007.0 |
| 20260903071517 | 27 | 98 | 1.6 | 6.4 | 0.00 | 0.00 | 0.00 | 58 | 1007.0 |
| 20260903070017 | 27 | 315 | 0.0 | 1.6 | 0.00 | 0.00 | 0.00 | 58 | 1006.7 |
| 20260903064513 | 27 | 300 | 0.0 | 0.0 | 0.00 | 0.00 | 0.00 | 58 | 1006.6 |
| 20260903063013 | 27 | 291 | 0.0 | 1.6 | 0.00 | 0.00 | 0.00 | 56 | 1006.7 |
| 20260903061512 | 27 | 291 | 0.0 | 1.6 | 0.00 | 0.00 | 0.00 | 55 | 1006.8 |
| 20260903060015 | 27 | 291 | 0.0 | 0.0 | 0.00 | 0.00 | 0.00 | 57 | 1006.8 |
| 20260903054513 | 27 | 291 | 0.0 | 0.0 | 0.00 | 0.00 | 0.00 | 55 | 1006.9 |
| 20260903053011 | 27 | 291 | 0.0 | 3.2 | 0.00 | 0.00 | 0.00 | 55 | 1007.0 |
| 20260903051511 | 26 | 306 | 3.2 | 6.4 | 0.00 | 0.00 | 0.00 | 57 | 1007.0 |
| 20260903050010 | 27 | 98 | 0.0 | 0.0 | 0.00 | 0.00 | 0.00 | 59 | 1006.9 |
| 20260903044510 | 27 | 98 | 0.0 | 0.0 | 0.00 | 0.00 | 0.00 | 55 | 1006.9 |
| 20260903043015 | 27 | 98 | 0.0 | 0.0 | 0.00 | 0.00 | 0.00 | 54 | 1006.7 |
| 20260903041517 | 27 | 98 | 0.0 | 0.0 | 0.00 | 0.00 | 0.00 | 57 | 1006.6 |
| 20260903040009 | 28 | 49 | 0.0 | 1.6 | 0.00 | 0.00 | 0.00 | 53 | 1006.6 |
| 20260903034513 | 28 | 107 | 0.0 | 0.0 | 0.00 | 0.00 | 0.00 | 54 | 1006.5 |
| 20260903033007 | 28 | 107 | 0.0 | 1.6 | 0.00 | 0.00 | 0.00 | 49 | 1006.4 |
| 20260903031506 | 28 | 83 | 0.0 | 1.6 | 0.00 | 0.00 | 0.00 | 52 | 1006.1 |
| 20260903030006 | 27 | 334 | 0.0 | 0.0 | 0.00 | 0.00 | 0.00 | 53 | 1005.8 |
| 20260903024505 | 27 | 334 | 0.0 | 0.0 | 0.00 | 0.00 | 0.00 | 54 | 1005.7 |
| 20260903023020 | 28 | 334 | 0.0 | 0.0 | 0.00 | 0.00 | 0.00 | 53 | 1005.5 |
| 20260903021505 | 28 | 334 | 0.0 | 0.0 | 0.00 | 0.00 | 0.00 | 50 | 1005.3 |
| 20260903020004 | 28 | 334 | 0.0 | 0.0 | 0.00 | 0.00 | 0.00 | 51 | 1005.5 |
| 20260903014504 | 29 | 334 | 0.0 | 0.0 | 0.00 | 0.00 | 0.00 | 50 | 1005.6 |
| 20260903013003 | 30 | 334 | 0.0 | 1.6 | 0.00 | 0.00 | 0.00 | 47 | 1005.4 |
| 20260903011502 | 30 | 341 | 3.2 | 6.4 | 0.00 | 0.00 | 0.00 | 46 | 1005.2 |
| 20260903010002 | 31 | 318 | 4.8 | 9.7 | 0.00 | 0.00 | 0.00 | 43 | 1005.2 |
| 20260903004501 | 32 | 289 | 3.2 | 6.4 | 0.00 | 0.00 | 0.00 | 43 | 1005.0 |
| 20260903003114 | 31 | 262 | 0.0 | 6.4 | 0.00 | 0.00 | 0.00 | 43 | 1005.1 |
| 20260903001600 | 32 | 332 | 1.6 | 8.0 | 0.00 | 0.00 | 0.00 | 42 | 1005.1 |
| 20260903000108 | 32 | 322 | 4.8 | 8.0 | 0.00 | 0.00 | 0.00 | 42 | 1005.0 |
| 20260902234605 | 34 | 299 | 1.6 | 8.0 | 0.00 | 0.00 | 0.00 | 38 | 1005.0 |
| 20260902233059 | 34 | 318 | 4.8 | 11.3 | 0.00 | 0.00 | 0.00 | 39 | 1004.9 |
| 20260902231556 | 33 | 269 | 4.8 | 12.9 | 0.00 | 0.00 | 0.00 | 38 | 1005.2 |
| 20260902230105 | 33 | 224 | 4.8 | 11.3 | 0.00 | 0.00 | 0.00 | 39 | 1005.4 |